Voltar ao catálogo

SL-6 DEB

AtivoHEO
NORAD 13911·DEBRIS·🇷🇺 Russia

Lançado Sep 11, 1981 de Plesetsk Cosmodrome

Loading…

Próximas Passagens (próximas 24 horas)

TLE

ObsoletoSource: Space-Track

Época: Aug 16, 2026, 11:43 UTC

1 13911U 81088L   26228.48868799  .00000121  00000-0  20240-3 0  9994
2 13911  63.0274 143.8463 4614759 222.2819  91.1657  5.99178443117390

Acompanhe SL-6 DEB em tempo real com AllMySat

Download on the App Store